Location: La Comballaz
(46.3780°N, 7.0817°E)
Time: 05:33:49
(UTC+00:00)

X-37B - Pass Details

Date: 09 December 2021
Orbit: 334 x 337 km, 45.0° (Epoch: 11 January)

Event Time Altitude Azimuth Distance (km) Brightness Sun altitude
Rises 16:18:50 0° 215° (SW) 2,094 5.6 -5.9°
Reaches altitude 10° 16:21:16 10° 193° (SSW) 1,261 3.8 -6.3°
Maximum altitude 16:23:10 16° 151° (SSE) 962 2.6 -6.6°
Drops below altitude 10° 16:25:04 10° 109° (ESE) 1,265 2.8 -6.9°
Enters shadow 16:26:00 - 97° (E) 1,559 3.1 -7.0°
